Flag for Germany Weather past 2 weeks in Westerstede, Lower Saxony, Germany

Now
63 °F

Mild.


Feels Like: 63 °F
Forecast: 56 / 69 °F
Wind: 6 mph from Northeast

Location: Wittmundhaven

Current Time: Aug 31, 2015 at 4:47:34 AM

Latest Report: Aug 31, 2015 at 3:20 AM


Visibility: 3 mi

Pressure: 29.98 "Hg

Humidity: 94%

Dew point: 61 °F

Location of WesterstedeLocation

Historic Weather in Westerstede — Graph

°F

Westerstede temperature yesterday

Maximum temperature yesterday: 70 °F (at 3:20 PM)
Minimum temperature yesterday: 54 °F (at 12:20 AM)
Average temperature yesterday: 61 °F

Past Weeks' High & Low Weather Summary

 TemperatureHumidityPressure
High77 °F (Aug 21, 3:20 PM)100% (Aug 17, 3:20 AM)30.27 "Hg (Aug 17, 3:20 AM)
Low50 °F (Aug 29, 2:20 AM)34% (Aug 22, 1:20 PM)29.50 "Hg (Aug 24, 6:20 PM)
Average64 °F80%29.95 "Hg
* Reported Aug 16 3:20 AM — Aug 31 3:20 AM, Westerstede, Weather by CustomWeather, © 2015

Note: Actual official high and low records may vary slightly from our data, if they occured in-between our weather recording intervals... More about our weather records

Advertising

Westerstede weather history for previous 24 hours

 ConditionsComfort  
Time TempWeatherWind HumidityBarometerVisibility
3:20 AM
Mon, Aug 31
63 °FMild.6 mph94%29.98 "Hg2 mi
2:20 AM63 °FMild.2 mph94%30.01 "Hg3 mi
1:20 AM61 °FCool.3 mph94%30.01 "Hg3 mi
12:20 AM61 °FCool.6 mph94%30.01 "Hg3 mi
11:20 PM
Sun, Aug 30
63 °FMild.6 mph88%30.01 "Hg3 mi
10:20 PM63 °FMild.7 mph88%30.01 "Hg3 mi
9:20 PM64 °FMild.7 mph83%30.04 "Hg4 mi
8:20 PM66 °FMild.9 mph83%30.01 "Hg4 mi
7:20 PM68 °FMild.8 mph78%30.01 "Hg4 mi
6:20 PM68 °FMild.10 mph73%30.04 "Hg4 mi
5:20 PM68 °FMild.13 mph78%30.04 "Hg4 mi
4:20 PM70 °FMild.14 mph69%30.04 "Hg5 mi
3:20 PM70 °FMild.14 mph69%30.04 "Hg6 mi
10:20 AM63 °FMild.5 mph83%30.09 "Hg5 mi
9:20 AM64 °FMild.9 mph68%30.09 "Hg6 mi
8:20 AM61 °FCool.6 mph83%30.09 "Hg4 mi
7:20 AM55 °FCool.2 mph94%30.09 "Hg3 mi
6:20 AM57 °FCool.3 mph88%30.09 "Hg3 mi
5:20 AM55 °FCool.1 mph94%30.09 "Hg2 mi
4:20 AM55 °FCool.3 mph94%30.12 "Hg3 mi
Weather by CustomWeather, © 2015

See weather overviewHow to use our weather pages